Regional Weather Roundup
Issued by NWS

Home | Current Version | Previous Version | Graphics & Text | Print | Product List | Glossary On
Versions: 1 2 3 4 5 6 7 8 9 10 11 12 13 14 15 16 17 18 19 20 21 22 23 24 25 26 27 28 29 30 31 32 33 34 35 36 37 38 39 40 41 42 43 44 45 46 47 48 49 50
000
ASUS43 KLOT 290103
RWRIL

ILLINOIS REGIONAL WEATHER ROUNDUP
NATIONAL WEATHER SERVICE CHICAGO/ROMEOVILLE IL
800 PM CDT SUN AUG 28 2016

NOTE: "FAIR" INDICATES FEW OR NO CLOUDS BELOW 12,000 FEET WITH NO
SIGNIFICANT WEATHER AND/OR OBSTRUCTIONS TO VISIBILITY.

* THESE STATIONS ARE NOT UNDER NWS QUALITY CONTROL. THEY ALSO MAY NOT
  REPORT WEATHER SUCH AS PRECIPITATION OR FOG.

ILZ001-002-007-009-015-016-024-290200-
NORTHWEST ILLINOIS

CITY           SKY/WX    TMP DP  RH WIND       PRES   REMARKS
MOLINE         CLOUDY    74  68  81 CALM      30.16S
STERLING*      CLOUDY    73  72  96 CALM      30.17R
SAVANNA*       MOCLDY    73  71  92 CALM      30.16S
$$

ILZ003-004-008-010-011-017-018-290200-
NORTH CENTRAL ILLINOIS

CITY           SKY/WX    TMP DP  RH WIND       PRES   REMARKS
ROCKFORD       CLOUDY    75  68  78 E5        30.18R
FREEPORT*      CLOUDY    71  68  90 SW5       30.19R
ROCHELLE*      CLOUDY    71  70  96 CALM      30.17S
$$

ILZ005-006-012>014-019>023-290200-
NORTHEAST ILLINOIS

CITY           SKY/WX    TMP DP  RH WIND       PRES   REMARKS
CHICAGO-OHARE  CLOUDY    74  68  81 E7        30.17S
CHICAGO-MIDWAY CLOUDY    76  68  76 NE12      30.16F
AURORA         CLOUDY    73  70  90 CALM      30.17S
LANSING*       CLOUDY    73  72  95 NE3       30.17S
JOLIET*        CLOUDY    74  73  95 CALM      30.17R FOG
WAUKEGAN       CLOUDY    70  68  93 NE3       30.18S
DUPAGE AIRPORT CLOUDY    75  68  78 E7        30.16F
KANKAKEE*      MOCLDY    72  70  94 CALM      30.18R
WHEELING       CLOUDY    73  69  87 NE5       30.19R
MORRIS*        MOCLDY    71  69  94 CALM      30.16S
ROMEOVILLE*    CLOUDY    74  72  93 E5        30.17R
$$

LMZ740>746-290200-
SOUTHERN LAKE MICHIGAN

STATION/POSITION SKY/WX   TEMP    WIND        PRES    VSBY  WAVE
                          AIR SEA DIR/SP/G                  HT/PER
                          (F)     (DEG/KT/KT) (MB)    (MI)  (FT/S)
SOUTHERN BUOY              73 75   50/  8/  8 1021.4          1
WILMETTE HARBOR            73 71   80/  6/  8   N/A           1/ 3
HARRISON CRIB              74      40/  4/  4   N/A
BURNHAM HARBOR             72      10/  5/  5   N/A
CALUMET HARBOR             74      20/  6/  7 1021.3F
BURNS HARBOR               74      70/  6/  9 1022.0S
MICHIGAN CITY              74      20/ 10/ 12   N/A
MICHIGAN CITY 6N           75 77   40/ 10/ 12   N/A           1/ 3
ST. JOSEPH                 75 75   20/  8/ 10 1021.6R         2/ 3
$$

ILZ025>027-034>036-040-047-049-050-058-095>099-290200-
WEST-CENTRAL ILLINOIS

CITY           SKY/WX    TMP DP  RH WIND       PRES   REMARKS
QUINCY         CLEAR     80  74  81 E5        30.12R HX  85
GALESBURG*     PTCLDY    72  67  85 NE3       30.16R
MACOMB*        PTCLDY    72  70  92 NE3       30.16S
JACKSONVILLE*  CLEAR     79  74  83 NE7       30.12R HX  83
PITTSFIELD*    CLEAR     80  76  89 N5        30.13R HX  85
$$

ILZ028>032-037-038-041>044-048-051>054-059>061-290200-
CENTRAL ILLINOIS

CITY           SKY/WX    TMP DP  RH WIND       PRES   REMARKS
PONTIAC        MOCLDY    72  72 100 NE6       30.16S
BLOOMINGTON    PTCLDY    73  69  87 CALM      30.16R
DECATUR        CLEAR     78  73  84 NE5       30.14R HX  81
PEORIA         PTCLDY    76  71  85 CALM      30.13S
LACON*         PTCLDY    71  69  94 CALM      30.13R
LINCOLN*       PTCLDY    74  71  91 CALM      30.14R
SPRINGFIELD    CLEAR     77  71  82 NE7       30.13R
TAYLORVILLE    PTCLDY    80  74  80 CALM      30.12R HX  85
$$

ILZ033-039-045-046-055>057-062-063-290200-
EAST-CENTRAL ILLINOIS

CITY           SKY/WX    TMP DP  RH WIND       PRES   REMARKS
CHAMPAIGN      CLEAR     77  69  76 NE6       30.15R
RANTOUL*       CLEAR     79  76  91 E3        30.14S HX  83
MATTOON        CLEAR     81  74  79 CALM      30.13R HX  86
PARIS*         CLEAR     77  77  99 CALM      30.14S
$$

ILZ079-100>102-290200-
SOUTHWEST ILLINOIS

CITY           SKY/WX    TMP DP  RH WIND       PRES   REMARKS
BELLEVILLE     CLEAR     84  74  71 E3        30.09R HX  90
CAHOKIA*       CLEAR     83  73  72 CALM      30.09R HX  89
SPARTA*        CLEAR     80  76  87 CALM      30.11R HX  86
$$

ILZ064>066-069>071-074>076-080>082-084>086-088>090-092>094-290200-
SOUTH-CENTRAL ILLINOIS

CITY           SKY/WX    TMP DP  RH WIND       PRES   REMARKS
CARBONDALE     CLEAR     80  76  87 E5        30.09R HX  86
EFFINGHAM*     CLEAR     79  78  96 CALM      30.14R HX  84
MARION         CLEAR     82  77  83 CALM      30.10R HX  91
MT. VERNON     CLEAR     81  72  74 NE3       30.12R HX  84
CENTRALIA*     CLEAR     82  77  86 E3        30.10R HX  90
SALEM*         CLEAR     82  74  77 CALM      30.11R HX  88
METROPOLIS*    CLEAR     80  76  90 CALM      30.09S HX  84
$$

ILZ067-068-072-073-078-083-087-091-290200-
SOUTHEAST ILLINOIS

CITY           SKY/WX    TMP DP  RH WIND       PRES   REMARKS
LAWRENCEVILLE  CLOUDY    82  77  84 N6        30.13R HX  90
FLORA*         CLOUDY    82  77  86 NE3       30.12R HX  89
FAIRFIELD*     CLEAR     80  75  85 CALM      30.10R HX  84
HARRISBURG*    CLEAR     80  77  89 CALM      30.10R HX  87
ROBINSON*      CLOUDY    78  76  94 CALM      30.14R HX  80
CARMI*         CLEAR     79  78  95 NE3       30.10R HX  84
$$

ABBREVIATIONS USED IN REMARKS
   TC - TEMPERATURE IN CELSIUS
  WCI - WIND CHILL INDEX
   HX - HEAT INDEX
  VSB - VISIBILITY
$$





USA.gov is the U.S. government's official web portal to all federal, state and local government web resources and services.